CAPE
0 0 0 0 0 0 0 0 0 0 0 0 0 0 0 0 0 0 0 0 0 0 0 0 0 0 0 0 0 0 0 0 0 309 965 1256 767 418 1059 1808 1677 1585 1780 1841 2186 1963 1645 1773 1882 1787 1431 1596 1637 1832 1774 1914 2071 1775 1636 1642 1659 1618 1288 1224 979 842 843 747 785 738 906 1109 1090 1055 892 966 833 802 711 410 971 1512 1665 1806 1898 1767
0 0 0 0 0 0 0 0 0 0 0 0 0 0 0 0 0 0 1 0 0 0 0 0 0 0 0 0 0 0 0 0 2 79 569 714 1048 1108 1252 1451 1360 1144 1038 1450 2175 2121 1619 1527 1834 1809 1776 1837 1756 1741 1978 1877 1875 1825 1698 1712 1646 1506 1238 1204 1087 993 1011 996 770 1202 1138 1279 1254 1121 927 885 912 586 772 1109 1432 1609 1692 1787 1911 2011
0 0 0 0 0 0 0 0 0 0 0 0 0 0 0 0 0 0 0 0 0 0 0 0 0 0 0 0 0 0 0 0 0 0 240 111 251 760 910 1667 1393 1430 1938 1514 1472 2101 1960 1686 1717 1956 1963 1966 1926 2018 2052 2203 1853 1756 1768 1752 1532 1036 1339 1001 1075 1163 636 596 1251 519 1308 1420 1390 1410 1505 857 740 516 636 1216 1525 1824 1748 1876 1797 1689
0 0 0 0 0 0 0 0 0 0 0 0 0 0 0 0 0 0 3 0 0 0 0 0 0 0 0 0 0 0 0 0 0 0 0 262 422 404 346 905 1099 1976 2153 2038 1516 2023 2071 1895 1731 1799 2028 2081 2048 2079 2187 2322 2204 1861 1688 1665 1394 886 823 784 1013 774 505 780 873 1819 1555 1293 1412 1604 1028 715 696 478 522 1012 1399 1787 1741 1365 1005 975
0 0 0 0 0 0 0 0 0 0 0 0 0 0 0 0 0 0 5 0 0 0 0 0 0 0 0 0 0 0 0 0 0 0 0 1 210 398 402 559 1455 1812 2416 2380 2017 1759 2206 2102 1897 1840 1758 2228 2133 2402 2364 2328 2150 1824 1724 1650 1293 1010 785 532 735 759 915 810 1510 1047 989 928 1142 716 834 469 435 598 542 660 1064 1052 1198 1004 952 917
0 0 0 0 0 0 0 0 0 0 0 0 0 0 0 0 0 0 0 0 0 0 0 0 0 0 0 0 0 0 0 0 0 0 0 0 0 88 334 483 1061 1754 2395 2395 1843 1678 2192 2561 2406 2166 2095 2025 2257 2572 2431 2295 1904 2011 1647 1661 1378 878 814 1086 1242 949 539 1086 681 576 880 875 1212 652 802 470 606 552 638 608 932 896 959 805 743 704
0 0 0 0 0 0 0 0 0 0 0 0 0 0 0 0 0 0 0 0 0 0 0 0 0 0 0 0 0 0 0 0 0 0 0 0 0 0 117 414 423 1252 1282 1328 1941 2002 2454 2769 2622 2662 2430 2277 2244 2279 2395 2054 1817 1680 1363 1668 1150 932 725 794 934 937 842 565 1320 1528 1142 1175 1113 723 618 956 776 441 385 1030 936 870 833 578 780 752
0 0 0 0 0 0 0 0 0 0 0 0 0 0 0 0 0 0 0 0 0 0 0 0 0 0 0 0 0 0 0 0 0 0 0 0 0 0 20 208 290 884 980 1471 1775 1805 2188 2681 2740 2873 2757 2460 2217 2177 2207 1957 1913 1531 911 996 1174 996 1156 614 606 786 1032 758 1197 843 1019 1035 743 724 892 871 991 1086 614 891 924 832 784 579 677 747
0 0 0 0 0 0 0 0 0 0 0 0 0 0 0 0 0 0 0 0 0 0 0 0 0 0 0 0 0 0 0 0 0 0 0 0 0 0 0 131 247 838 989 1484 1843 1920 2028 2345 2645 2828 2757 2487 2342 2228 2094 1608 1632 1428 1273 661 890 1534 1296 953 727 772 731 971 742 760 722 985 695 859 1033 984 827 486 680 730 772 490 376 590 734 680
0 0 0 0 0 0 0 0 0 0 0 0 0 0 0 0 0 0 0 0 0 0 0 0 0 0 0 0 0 0 0 0 0 0 0 6 0 0 0 0 12 77 1423 1619 1230 1246 1525 1435 2662 2577 2569 1972 1667 1582 1358 1024 1325 1006 744 610 734 796 962 1049 859 851 838 743 654 738 757 1169 1291 1149 832 685 508 560 577 754 707 556 524 647 808 740
2 0 0 0 0 0 0 0 0 0 0 0 0 0 0 0 0 0 0 0 0 0 0 0 0 0 0 0 1 0 0 0 77 453 665 590 561 144 82 68 4 5 558 1136 926 1227 1698 1492 1688 2518 1937 1550 1071 734 747 568 915 1022 523 169 609 779 814 864 932 709 710 698 577 735 762 881 1063 931 694 346 392 775 587 768 702 564 516 617 700 749
0 0 0 0 0 0 0 0 0 0 0 0 0 0 0 0 0 0 0 0 0 0 10 1 0 0 1 1 269 389 480 455 790 774 894 734 769 343 288 130 14 824 1471 1163 1059 655 969 1939 2241 2086 1721 1400 1089 656 710 644 764 420 619 551 614 622 654 716 867 846 641 654 618 672 686 843 929 818 588 300 653 519 530 618 624 463 428 444 416 603
0 0 0 0 0 0 0 0 0 0 0 0 0 0 0 1 0 2 3 1 4 3 8 0 2 1 0 31 929 179 503 620 868 399 438 614 569 399 309 171 46 671 719 460 743 1359 1960 2223 2070 1786 1672 1415 1192 1199 879 788 772 638 582 720 590 680 732 829 1026 785 721 648 690 658 703 852 865 667 535 503 504 514 586 544 410 412 383 413 463 543
0 0 0 0 0 0 0 0 0 0 0 0 0 0 0 3 21 1 3 1 48 47 0 21 0 0 8 418 492 620 545 587 677 571 595 852 760 476 630 408 228 609 620 534 993 1687 2140 2290 1825 1538 1417 1261 1329 1092 876 749 812 835 739 597 702 744 754 863 814 751 709 628 760 742 913 950 814 796 889 761 526 528 574 545 597 568 561 532 578 524
0 0 0 0 0 0 0 0 0 0 0 0 0 0 0 5 3 4 5 15 8 4 44 21 2 0 3 45 820 833 698 889 1184 926 1042 1413 1258 1030 523 235 296 1366 1176 1365 2027 2155 1896 1934 1762 1446 1451 1459 1423 1172 832 932 979 918 940 887 747 676 676 818 685 731 755 786 995 846 871 1061 1276 813 597 767 708 620 628 574 604 644 620 500 565 498
0 0 0 0 0 0 0 0 0 0 0 0 0 0 0 1 0 6 180 22 50 8 121 176 47 59 557 841 914 980 789 854 664 1345 1332 1384 1265 1280 1353 962 1041 1124 832 1559 1625 1827 1504 1554 1889 1308 1250 1348 1482 1230 1143 1035 1162 1136 1099 1046 899 805 844 767 806 741 911 1155 1143 824 725 831 734 748 796 989 784 783 805 625 598 700 504 430 457 437
1 13 0 0 0 0 0 0 0 0 4 16 0 0 0 0 27 13 2 28 93 5 7 96 14 96 423 773 543 927 1006 780 720 1048 1270 1022 1433 1628 1444 1178 1586 1514 904 1622 1303 1929 1485 1491 1827 1757 1334 1402 1398 1245 1203 1251 1233 1276 1248 1131 1185 954 822 957 853 803 1102 1271 1176 921 958 898 703 943 1338 1016 895 810 768 726 609 641 415 530 510 574
0 0 0 0 0 0 0 0 0 0 0 5 6 9 0 0 73 98 42 10 5 21 5 1 8 236 20 208 471 946 1211 822 894 932 1052 1238 1190 1142 1233 1074 1236 1716 1883 1339 1898 1448 1600 1472 1727 1547 1733 1750 1645 1273 981 1170 1167 1073 1094 1220 1146 1076 853 907 1051 1036 1201 1255 1229 1308 1248 1129 1087 1171 1390 1239 835 777 775 646 582 565 611 588 622 602
0 0 3 0 0 0 0 0 0 0 0 0 13 2 0 41 3 109 0 24 46 12 46 19 6 48 144 428 233 744 1091 941 954 807 737 930 1033 769 548 995 921 1174 1149 1542 1698 1659 1716 1453 1694 1423 1469 1739 1449 1284 1470 1317 1281 1272 1177 1168 984 1202 944 981 1103 1206 1283 1236 1204 1522 1603 1422 1382 1543 1611 1192 731 814 635 608 558 597 626 675 586 568
18 0 3 0 0 0 0 0 0 0 0 0 0 0 0 32 47 20 38 102 150 77 2 21 33 4 282 743 593 896 904 1182 673 788 772 728 626 917 757 1019 1288 1632 1606 1598 1620 1577 1455 1539 1523 1365 1377 1419 1221 1259 1269 1132 1034 1122 1148 1202 980 956 1073 1054 1094 1230 1239 1155 1082 1168 1543 1575 1314 1451 1330 849 629 566 539 505 726 550 662 695 391 370
66 10 12 4 0 0 0 0 0 0 0 0 0 0 16 50 150 103 46 34 102 96 56 4 15 416 422 488 644 981 885 931 949 594 588 868 1073 1066 1236 1383 1308 1384 1367 1459 1437 1446 1252 1276 1214 1112 1366 1377 1234 1143 1087 849 1206 1180 1169 1064 970 1106 1160 1219 1210 1177 1072 1167 1130 1532 1336 1334 1298 1476 1166 627 389 599 492 504 482 519 561 606 501 354
3 36 4 9 0 4 0 0 0 0 0 0 0 0 1 47 165 78 98 8 40 7 53 65 40 277 644 770 621 930 949 768 812 802 447 901 830 738 834 981 1235 1170 1224 1304 1326 1278 1368 1178 1223 1185 1333 970 881 1048 968 1013 986 973 1049 889 910 1020 1226 1201 1035 983 1019 1079 1400 1435 1401 1264 1529 1331 979 563 552 468 466 457 481 555 546 558 593 458
6 108 24 8 9 20 0 0 0 0 48 35 6 13 0 31 0 68 194 120 110 20 39 178 97 54 842 612 722 909 941 998 906 1005 900 803 848 599 714 670 725 880 1001 1100 1116 1035 1120 1104 1091 971 929 758 862 968 975 911 870 1200 964 1048 960 1079 1040 802 804 1093 1112 968 1501 1465 1473 1663 1523 1352 796 663 532 499 522 498 610 626 578 581 521 452
4 39 131 42 55 21 122 65 32 10 28 76 57 190 170 42 152 79 53 89 82 3 62 61 92 415 664 583 1055 1184 994 919 839 893 835 770 616 628 647 696 460 526 647 682 721 727 771 754 780 820 851 710 859 814 947 942 809 746 693 794 1205 1031 1037 1114 1192 1042 1251 1138 1028 994 1447 1438 1511 1242 938 666 462 503 698 661 639 565 483 482 426 395
9 52 78 56 27 3 205 111 85 29 0 8 41 145 32 113 216 412 350 146 23 122 32 16 7 56 785 1012 989 1023 859 796 741 639 718 643 451 765 776 678 565 509 450 502 566 616 567 636 585 587 623 840 908 813 889 900 782 764 881 594 1008 1149 1027 1095 815 572 786 1200 1181 1365 1219 1482 1770 1391 800 653 553 635 695 720 534 475 328 406 301 340
7 108 77 88 76 31 10 243 78 127 73 21 68 133 106 166 162 173 66 206 32 87 26 30 258 532 878 1065 1021 769 714 635 712 585 560 566 715 587 734 611 508 422 364 238 305 406 395 446 442 416 380 564 572 587 774 789 648 705 603 545 758 894 790 776 562 518 625 1199 1373 1132 1286 1178 1102 856 934 584 702 621 629 651 337 420 298 110 123 272
152 160 158 191 101 103 145 147 25 10 137 57 223 64 108 100 131 525 240 134 28 152 188 618 132 783 694 1015 662 623 677 687 649 651 604 704 774 680 606 558 506 477 432 245 157 128 140 291 270 291 272 287 319 321 380 502 538 582 499 556 596 661 657 851 533 460 537 964 783 868 1204 904 1273 999 950 769 619 660 664 674 552 389 316 98 110 140
80 72 60 273 261 174 75 224 11 56 45 77 9 71 14 102 347 544 113 241 706 28 2 560 722 444 760 690 680 515 652 642 562 544 740 652 746 638 591 534 482 338 411 292 65 0 0 122 190 188 144 115 64 52 179 244 435 367 358 549 526 540 494 472 603 61 644 665 830 860 806 1459 1498 1580 848 677 573 611 611 572 484 451 347 176 35 1
101 44 222 322 123 346 41 54 32 130 192 150 245 412 504 509 692 845 905 752 731 180 122 133 779 862 530 481 557 380 508 506 482 423 499 612 630 578 563 481 482 368 279 219 1 1 0 0 1 1 46 53 39 30 36 181 76 27 216 412 425 475 333 296 282 400 701 716 598 689 950 1105 1364 1497 1168 679 367 229 376 383 494 544 394 185 11 0
265 102 281 96 103 51 126 123 120 98 161 130 140 202 252 736 784 883 782 472 895 988 447 635 865 494 375 230 271 381 404 400 382 321 363 437 475 513 526 465 448 380 278 324 283 121 0 0 0 1 1 1 1 0 13 32 32 76 44 195 259 350 299 487 320 554 639 593 662 624 742 864 965 1204 1279 840 584 486 474 486 532 534 403 161 7 2
90 15 105 188 47 111 296 58 66 86 161 29 34 32 69 201 228 247 262 441 561 764 500 420 254 314 59 190 322 436 353 277 261 295 355 392 455 491 511 457 344 349 328 60 202 34 0 0 0 0 0 1 1 6 3 2 5 12 72 36 97 246 187 320 457 544 653 417 306 350 611 706 676 813 777 776 669 604 429 448 247 308 140 46 23 50
152 56 291 168 20 59 226 282 285 86 93 57 17 1 1 26 41 35 57 150 313 222 374 564 520 400 225 277 371 398 387 392 297 265 192 326 443 423 427 272 300 215 176 91 40 144 112 52 0 0 0 1 1 5 2 2 12 19 39 27 81 200 176 279 282 380 363 235 324 276 242 366 422 421 574 609 546 465 442 287 160 104 111 143 90 39
453 324 226 81 42 102 125 203 173 268 85 25 0 0 0 0 5 18 3 3 17 183 176 202 225 178 156 301 315 328 352 394 247 164 305 306 369 399 489 419 327 249 137 94 38 81 67 18 0 6 70 54 37 18 11 14 20 18 13 11 32 80 160 193 192 188 205 241 334 82 59 103 167 156 213 90 57 91 175 221 205 187 194 219 314 372
358 294 102 59 27 87 107 126 369 26 116 16 1 1 4 3 4 8 8 5 2 4 6 60 206 155 76 129 210 147 98 253 142 147 155 255 300 360 418 385 300 263 173 94 18 5 6 14 2 38 49 6 12 6 5 16 10 25 23 14 7 25 26 52 158 117 18 10 199 133 24 68 15 8 0 0 0 0 2 81 62 0 0 25 10 17
262 241 116 42 3 36 138 99 39 94 0 0 3 2 7 9 1 5 8 3 2 1 5 2 4 11 78 142 50 34 25 40 46 135 209 261 252 312 374 371 311 274 216 105 54 1 1 1 0 2 19 19 2 10 13 14 14 18 21 13 17 5 27 38 15 18 4 16 27 45 52 2 52 63 16 0 0 0 0 0 3 3 10 4 1 1
15 18 24 8 2 18 40 80 128 4 1 5 0 1 0 9 0 4 5 3 4 3 1 2 3 4 90 86 17 49 10 93 148 160 252 161 180 238 225 307 333 319 234 162 127 80 5 1 0 2 12 13 1 0 0 3 21 25 8 13 14 20 1 3 3 3 2 3 1 12 15 8 5 5 10 7 0 0 0 0 0 4 1 0 0 0
54 118 2 25 28 6 18 30 25 3 2 0 0 0 2 1 0 1 0 5 3 4 3 1 2 2 36 39 19 69 89 106 90 165 209 238 221 183 236 294 297 249 216 201 136 66 24 0 3 0 0 1 2 0 0 1 8 31 26 12 2 2 1 1 6 4 6 4 2 2 4 4 2 5 4 4 3 0 0 0 0 0 0 0 0 0
26 4 28 3 0 6 0 2 4 12 7 0 1 0 0 3 2 2 3 1 2 2 4 3 1 5 6 3 1 2 19 6 3 46 142 210 201 204 114 73 156 160 114 120 51 30 17 2 1 0 0 0 1 1 3 4 2 3 3 1 0 4 4 10 10 9 4 4 6 11 6 7 7 2 2 0 1 1 0 0 1 0 0 0 0 4
23 108 29 14 11 0 32 10 7 34 3 1 0 1 0 4 2 0 0 3 1 4 4 4 4 4 4 4 5 3 1 0 1 1 13 172 218 203 168 131 109 119 94 57 42 30 40 35 12 4 0 0 0 0 2 2 3 4 1 1 1 1 0 0 4 6 3 1 2 3 4 3 2 2 2 1 1 1 0 1 1 0 0 0 0 13
28 14 23 0 9 6 2 17 8 13 4 1 0 2 1 1 5 1 23 1 2 4 5 3 2 2 4 3 4 4 2 2 0 0 5 48 112 133 108 109 76 78 56 29 57 77 44 27 13 13 7 4 0 0 6 2 5 7 4 2 3 4 5 1 1 3 3 2 2 3 4 5 4 0 0 2 2 3 1 2 2 1 3 3 2 0
3 2 10 8 24 8 4 0 2 3 0 0 2 0 1 4 0 1 17 0 0 3 5 2 3 5 3 12 13 2 3 0 0 3 8 4 2 2 0 11 45 32 26 16 20 34 18 19 22 10 9 2 0 0 0 0 1 4 4 3 4 2 1 0 1 1 3 1 1 3 4 4 2 2 2 6 4 3 2 0 1 4 7 8 6 5
8 13 4 14 12 0 24 0 3 4 0 0 1 3 1 2 1 5 1 4 0 2 3 3 4 4 3 5 5 7 10 4 6 5 5 5 4 2 1 5 4 5 12 15 14 12 12 9 12 11 21 3 1 0 0 0 0 0 0 2 1 1 1 2 2 1 2 2 0 0 4 2 0 1 0 1 2 2 6 10 4 4 3 6 6 2
9 19 15 3 9 14 4 19 1 8 0 3 0 1 1 2 1 3 1 0 12 3 5 1 9 10 2 2 1 9 10 8 6 5 1 4 8 8 2 0 1 1 2 5 9 8 8 10 10 13 1 0 1 0 0 0 0 0 1 2 0 0 0 0 1 0 0 0 0 0 0 0 0 0 0 2 1 0 8 6 3 5 5 7 4 0
0 0 10 7 1 4 0 13 6 2 0 0 1 2 3 5 2 4 2 1 4 5 2 1 0 3 0 2 3 9 9 6 7 3 3 1 1 1 0 0 0 0 0 0 0 2 1 1 5 4 0 1 2 1 0 0 1 0 1 3 5 4 2 0 0 0 0 0 0 0 1 0 0 0 0 0 0 1 3 4 2 2 2 1 2 2
0 0 2 4 0 8 7 2 2 8 1 3 2 10 3 4 5 4 2 1 2 2 2 2 4 2 2 3 4 10 11 9 2 5 2 2 1 0 1 4 5 3 0 1 2 0 0 0 1 1 0 0 0 0 0 0 2 2 8 4 4 13 16 8 1 0 0 0 0 0 0 0 0 0 1 1 1 1 0 0 0 0 0 0 0 0
1 0 0 0 1 0 2 1 2 2 1 0 5 7 10 8 6 4 1 2 2 1 5 4 0 0 6 3 4 5 7 1 0 2 4 2 6 9 8 6 6 6 5 5 3 1 0 0 0 0 0 0 0 0 0 0 0 0 0 2 2 4 7 8 5 1 0 0 0 0 0 0 0 0 0 0 0 0 0 0 0 0 0 0 0 0
1 3 0 1 7 1 8 1 0 0 2 1 2 3 3 4 4 3 3 2 2 9 6 6 5 7 8 9 6 2 0 0 0 0 1 3 4 4 1 2 5 8 10 6 3 1 0 0 0 0 0 0 0 0 0 0 0 0 0 0 0 0 0 0 0 1 1 1 1 0 0 0 0 0 0 0 0 0 0 0 0 0 0 0 0 0
0 0 0 3 4 1 1 1 0 2 0 4 1 2 0 5 4 4 3 2 1 4 7 8 7 9 6 0 0 0 1 0 0 0 0 1 1 0 0 0 0 1 1 0 0 0 0 0 0 0 0 0 0 0 0 0 0 0 0 0 0 0 0 0 0 0 0 0 0 0 0 0 0 0 0 0 0 0 0 0 0 0 0 0 0 0
0 0 0 0 2 0 1 1 1 0 2 0 1 0 1 4 4 5 5 4 4 6 3 3 4 3 6 14 1 0 2 5 3 0 0 0 0 0 0 0 0 0 2 4 2 0 0 0 0 0 0 0 0 0 0 0 0 0 0 0 0 0 0 0 0 0 0 0 0 0 0 0 0 0 0 0 0 0 0 0 0 0 0 0 0 0
0 1 1 0 2 1 1 1 5 2 3 0 1 1 2 4 1 0 0 0 1 2 0 0 1 1 2 0 0 0 0 0 5 7 5 2 1 2 0 0 1 2 2 1 3 3 2 1 1 0 0 0 0 0 0 0 0 0 0 0 0 0 0 0 0 0 0 0 0 0 0 0 0 0 0 0 0 0 0 0 0 0 0 0 0 0
2 1 7 0 0 0 3 2 1 1 2 5 1 1 6 1 2 1 2 0 2 9 1 0 0 0 0 0 0 0 0 0 0 0 0 0 2 2 2 3 1 1 0 2 0 3 4 3 0 3 2 0 0 0 0 0 0 0 0 0 0 0 0 0 0 0 0 0 0 0 0 0 0 0 0 0 0 0 0 0 0 0 0 0 0 0
Wind_Speed
nan nan nan nan nan nan nan nan nan nan nan nan nan nan nan nan nan nan nan nan nan nan nan nan nan nan nan nan nan nan nan nan nan 23 27 30 20 22 25 35 30 25 25 24 22 24 24 21 23 21 20 15 16 16 13 11 11 11 12 14 18 20 21 19 19 18 16 16 17 18 16 17 19 19 18 19 16 14 12 4 13 16 16 16 14 13
nan nan nan nan nan nan nan nan nan nan nan nan nan nan nan nan nan nan nan nan nan nan nan nan nan nan nan nan nan nan nan nan nan nan 24 23 20 22 27 37 30 29 25 24 25 23 25 23 25 24 22 18 16 13 11 10 9 9 11 16 19 22 18 14 15 17 18 18 19 19 18 18 19 19 18 17 19 12 8 15 17 18 15 15 14 13
nan nan nan nan nan nan nan nan nan nan nan nan nan nan nan nan nan nan nan nan nan nan nan nan nan nan nan nan nan nan nan nan nan nan 22 20 20 24 19 36 36 28 25 26 26 25 23 23 25 25 21 17 13 13 11 10 10 9 9 12 17 19 14 14 18 21 20 22 18 20 16 18 20 20 21 21 19 15 16 16 13 16 14 14 14 13
nan nan nan nan nan nan nan nan nan nan nan nan nan nan nan nan nan nan nan nan nan nan nan nan nan nan nan nan nan nan nan nan nan nan nan 18 22 22 18 35 36 34 23 23 25 25 20 19 22 23 19 15 12 11 10 10 11 12 10 11 17 22 15 19 21 25 19 18 18 21 23 20 22 21 20 19 18 20 16 11 12 16 15 14 13 13
nan nan nan nan nan nan nan nan nan nan nan nan nan nan nan nan nan nan nan nan nan nan nan nan nan nan nan nan nan nan nan nan nan nan nan nan 20 17 15 27 43 30 24 24 24 22 19 18 20 21 17 13 11 10 10 9 9 11 12 13 19 25 23 18 24 20 20 19 22 23 22 21 22 21 17 17 18 18 14 7 14 18 16 15 14 14
nan nan nan nan nan nan nan nan nan nan nan nan nan nan nan nan nan nan nan nan nan nan nan nan nan nan nan nan nan nan nan nan nan nan nan nan nan nan 13 18 36 32 25 22 24 23 16 17 20 20 15 12 9 9 9 9 10 12 12 16 22 29 27 21 25 26 20 20 19 20 21 18 19 17 15 14 14 16 13 11 17 19 16 16 15 14
nan nan nan nan nan nan nan nan nan nan nan nan nan nan nan nan nan nan nan nan nan nan nan nan nan nan nan nan nan nan nan nan nan nan nan nan nan nan 12 13 29 33 24 22 23 22 16 17 18 17 14 11 7 8 9 11 15 15 23 25 27 27 25 24 23 22 20 18 19 25 23 21 19 17 16 17 16 19 12 15 18 19 16 16 16 14
nan nan nan nan nan nan nan nan nan nan nan nan nan nan nan nan nan nan nan nan nan nan nan nan nan nan nan nan nan nan nan nan nan nan nan nan nan nan nan 9 16 33 28 26 24 18 17 16 15 14 14 10 8 12 16 17 20 29 32 24 23 18 24 27 22 21 23 23 24 28 24 21 21 19 21 19 18 21 10 16 17 19 17 16 17 15
nan nan nan nan nan nan nan nan nan nan nan nan nan nan nan nan nan nan nan nan nan nan nan nan nan nan nan nan nan nan nan nan nan nan nan nan nan nan nan 10 12 35 33 30 23 19 17 14 10 11 13 13 16 20 23 33 38 33 28 27 22 22 25 27 29 31 26 26 26 27 20 20 23 21 21 22 21 19 12 18 17 17 18 17 18 15
nan nan nan nan nan nan nan nan nan nan nan nan nan nan nan nan nan nan nan nan nan nan nan nan nan nan nan nan nan nan nan nan nan nan nan nan nan nan nan nan nan nan 40 28 25 24 20 13 11 14 19 29 36 42 45 43 38 34 34 32 29 28 25 27 34 29 24 27 29 25 19 22 23 23 23 24 21 14 16 17 18 18 17 17 16 14
nan nan nan nan nan nan nan nan nan nan nan nan nan nan nan nan nan nan nan nan nan nan nan nan nan nan nan nan nan nan nan nan nan 26 32 30 30 24 nan nan nan nan 37 31 23 22 24 22 16 24 39 46 50 49 46 38 32 35 34 30 24 23 24 26 30 26 26 27 28 26 25 24 24 23 26 24 20 16 16 18 18 17 16 15 15 14
nan nan nan nan nan nan nan nan nan nan nan nan nan nan nan nan nan nan nan nan nan nan nan nan nan nan nan nan 15 32 36 31 21 29 25 29 27 23 25 21 nan 37 43 27 26 27 25 24 33 41 44 44 51 45 40 36 35 36 34 26 20 20 21 23 26 26 26 26 26 26 28 26 26 24 26 24 17 17 17 17 17 16 16 14 14 12
nan nan nan nan nan nan nan nan nan nan nan nan nan nan nan nan nan nan nan nan nan nan nan nan nan nan nan nan 19 25 33 31 27 23 25 26 24 22 18 19 nan 32 28 20 29 29 28 33 36 44 42 41 41 39 34 34 37 39 38 31 28 24 26 26 26 25 26 25 25 26 26 25 25 25 27 23 17 17 18 16 16 15 14 13 13 11
nan nan nan nan nan nan nan nan nan nan nan nan nan nan nan nan nan nan nan nan nan nan nan nan nan nan nan 18 38 37 38 31 25 26 27 23 18 8 10 14 20 29 29 25 23 24 30 32 37 41 41 43 42 38 31 29 31 36 39 38 32 29 30 31 30 30 28 27 28 26 26 24 23 21 22 20 19 19 17 14 13 13 12 13 12 13
nan nan nan nan nan nan nan nan nan nan nan nan nan nan nan nan nan nan nan nan nan nan nan nan nan nan nan nan 34 37 34 24 24 25 23 18 14 19 11 14 15 23 26 22 21 28 30 31 35 35 36 38 38 37 33 28 31 35 36 37 35 31 30 32 32 31 29 29 30 28 26 23 22 21 23 19 21 20 17 14 13 11 13 13 13 14
nan nan nan nan nan nan nan nan nan nan nan nan nan nan nan nan nan nan 16 nan nan nan 10 15 nan nan 21 28 29 30 28 29 28 25 24 24 18 20 14 19 15 18 25 24 27 27 29 31 31 32 33 35 35 35 33 31 31 33 32 34 34 32 30 31 30 28 27 28 29 29 26 24 22 22 21 19 23 20 16 14 13 12 13 14 15 16
nan nan nan nan nan nan nan nan nan nan nan nan nan nan nan nan nan nan nan nan nan nan nan nan nan nan 25 25 26 28 26 28 28 25 24 22 19 21 18 15 16 22 21 22 21 24 28 27 26 29 31 31 31 31 29 28 28 29 29 30 32 32 31 31 30 28 30 31 28 27 25 24 24 23 20 22 24 21 16 15 14 14 13 17 16 18
nan nan nan nan nan nan nan nan nan nan nan nan nan nan nan nan nan nan nan nan nan nan nan nan nan 20 nan 22 20 20 25 25 27 28 27 26 25 25 24 25 22 23 24 21 22 24 24 24 24 29 29 28 27 29 27 27 25 24 25 27 29 32 32 32 31 30 32 31 28 24 23 24 23 22 21 21 22 18 16 16 15 15 15 17 17 19
nan nan nan nan nan nan nan nan nan nan nan nan nan nan nan nan nan 18 nan nan nan nan nan nan nan nan 27 28 19 17 20 24 25 25 26 27 28 27 25 23 23 22 20 20 21 21 22 23 25 30 24 23 25 26 27 26 25 24 25 25 25 29 30 33 32 32 31 31 26 23 23 23 22 22 20 16 16 17 14 16 15 16 16 18 19 18
nan nan nan nan nan nan nan nan nan nan nan nan nan nan nan nan nan nan nan 16 15 nan nan nan nan nan 25 28 23 19 20 22 26 26 26 28 29 30 20 13 19 22 20 19 20 21 23 25 28 28 26 24 26 26 28 28 26 26 25 27 25 26 29 32 34 35 33 29 26 23 22 22 22 23 19 16 15 15 13 15 17 17 18 18 17 17
nan nan nan nan nan nan nan nan nan nan nan nan nan nan nan nan 19 18 nan nan 15 nan nan nan nan 27 28 21 20 18 18 23 26 28 26 29 35 37 33 26 25 25 25 26 24 23 24 25 31 32 30 28 29 28 28 27 26 27 27 27 27 27 29 32 33 35 32 27 24 23 23 23 23 23 19 17 16 14 13 15 18 19 18 18 16 17
nan nan nan nan nan nan nan nan nan nan nan nan nan nan nan nan 14 nan nan nan nan nan nan nan nan 26 22 20 21 18 15 22 28 28 28 30 35 40 38 35 32 31 31 32 32 31 31 31 32 31 32 35 34 30 29 27 26 27 28 27 26 27 29 32 32 31 28 23 22 23 24 24 24 23 20 21 19 14 13 15 18 18 16 17 16 17
nan 19 nan nan nan nan nan nan nan nan nan nan nan nan nan nan nan nan 16 21 14 nan nan 14 nan nan 17 15 16 17 21 26 33 31 31 31 36 40 40 38 36 36 36 35 35 35 36 37 39 41 38 34 30 29 28 26 25 26 26 28 27 26 28 31 30 28 24 22 24 25 24 24 24 22 22 22 21 14 14 15 18 17 15 16 16 16
nan nan 17 nan nan nan 25 nan nan nan nan nan nan 18 18 nan 18 nan nan nan nan nan nan nan nan 22 16 14 18 19 19 24 30 34 32 32 33 37 41 41 38 35 35 36 36 36 37 37 39 40 36 29 28 29 32 30 25 23 23 24 26 27 30 30 30 29 27 26 27 26 24 22 21 22 21 22 21 18 17 17 17 15 15 13 14 15
nan nan nan nan nan nan 18 17 nan nan nan nan nan 18 nan 21 17 20 28 28 nan 17 nan nan nan nan 21 15 20 20 20 25 30 33 33 33 32 32 35 35 35 35 34 35 37 38 40 42 43 44 42 37 34 34 32 34 31 28 28 28 29 30 28 29 29 32 30 30 28 24 22 19 20 20 21 20 23 22 20 20 17 16 15 15 14 16
nan 18 nan nan nan nan nan 17 nan 21 nan nan nan 27 32 25 20 19 nan 18 nan nan nan nan 19 25 19 17 20 21 21 25 27 29 30 30 31 30 30 30 30 31 32 34 36 37 40 42 43 45 44 42 40 36 33 36 36 27 33 32 28 27 27 27 34 38 35 29 23 21 19 20 15 15 19 22 24 23 22 21 20 18 19 17 16 19
23 26 25 27 28 29 31 34 nan nan 24 nan 27 nan 30 26 24 24 24 23 nan 26 23 32 26 26 19 20 20 22 23 24 24 27 26 26 27 27 26 26 26 27 30 33 35 36 37 39 41 42 41 41 42 39 35 35 38 32 32 32 26 26 28 33 38 40 35 25 24 23 21 22 16 20 23 25 24 23 22 23 23 21 20 nan 18 19
nan nan nan 25 25 30 nan 30 nan nan nan nan nan nan nan 21 21 19 20 25 34 nan nan 29 27 21 22 21 21 21 21 22 24 25 25 24 24 24 25 26 28 29 31 33 nan nan nan 36 38 38 39 39 nan nan 38 38 39 37 34 28 30 32 34 35 38 nan 34 29 26 24 22 24 23 25 25 24 25 23 22 22 23 21 20 20 nan nan
25 nan 20 25 22 29 nan nan nan 29 32 26 26 28 24 28 24 29 33 35 25 27 28 27 18 21 22 22 22 22 21 22 23 25 24 23 24 25 28 30 31 32 33 34 nan nan nan nan nan nan nan nan nan nan nan 39 nan nan 38 33 30 36 40 42 39 34 30 29 28 25 24 25 26 24 25 25 24 22 20 20 20 21 20 21 nan nan
29 28 28 nan 25 nan 33 31 32 nan 28 35 32 31 29 31 34 33 35 36 37 38 35 33 29 29 23 20 19 18 20 21 23 23 23 24 25 26 27 29 30 31 32 32 31 31 nan nan nan nan nan nan nan nan nan nan nan nan nan 33 33 36 41 41 37 30 28 28 26 26 25 27 27 27 27 24 24 23 21 20 21 21 20 21 nan nan
nan nan 25 18 nan 21 24 nan nan nan 31 nan nan nan nan 32 34 35 33 36 34 37 37 34 33 29 nan 23 21 19 19 22 23 25 25 26 26 26 27 27 28 29 29 nan 29 nan nan nan nan nan nan nan nan nan nan nan nan nan nan nan nan 40 40 39 38 34 28 28 26 30 29 28 27 28 28 26 25 25 23 22 22 22 22 nan nan nan
31 nan 28 27 nan nan 24 24 24 nan nan nan nan nan nan nan nan nan nan 35 37 34 33 30 27 26 26 26 25 23 24 26 26 25 26 26 27 27 27 27 27 27 27 nan nan 27 28 nan nan nan nan nan nan nan nan nan nan nan nan nan nan 35 38 39 37 35 33 34 33 32 31 28 27 26 28 26 26 27 30 28 28 28 29 29 nan nan
29 28 28 nan nan 21 29 27 26 25 nan nan nan nan nan nan nan nan nan nan nan 36 32 30 34 33 30 27 26 26 27 27 27 26 25 27 28 29 29 28 28 27 27 nan nan nan nan nan nan nan nan nan nan nan nan nan nan nan nan nan nan nan 37 37 36 36 36 34 33 nan nan 33 31 30 30 nan nan nan 31 33 32 32 33 34 32 30
27 28 28 nan nan nan 26 29 30 nan 19 nan nan nan nan nan nan nan nan nan nan nan nan nan 35 33 nan 31 30 30 nan 30 29 28 27 26 27 29 30 30 30 30 29 nan nan nan nan nan nan nan nan nan nan nan nan nan nan nan nan nan nan nan nan nan 35 35 nan nan 35 34 nan nan nan nan nan nan nan nan nan nan nan nan nan nan nan nan
25 25 25 nan nan nan 25 nan nan nan nan nan nan nan nan nan nan nan nan nan nan nan nan nan nan nan nan 36 nan nan nan nan nan 32 31 30 29 29 31 31 31 32 31 31 nan nan nan nan nan nan nan nan nan nan nan nan nan nan nan nan nan nan nan nan nan nan nan nan nan nan nan nan nan nan nan nan nan nan nan nan nan nan nan nan nan nan
nan nan nan nan nan nan nan nan 18 nan nan nan nan nan nan nan nan nan nan nan nan nan nan nan nan nan nan nan nan nan nan nan 36 36 34 33 32 31 31 31 32 33 34 33 33 nan nan nan nan nan nan nan nan nan nan nan nan nan nan nan nan nan nan nan nan nan nan nan nan nan nan nan nan nan nan nan nan nan nan nan nan nan nan nan nan nan
nan 23 nan nan nan nan nan nan nan nan nan nan nan nan nan nan nan nan nan nan nan nan nan nan nan nan nan nan nan nan nan 35 nan 37 37 36 36 35 35 34 34 33 33 34 35 nan nan nan nan nan nan nan nan nan nan nan nan nan nan nan nan nan nan nan nan nan nan nan nan nan nan nan nan nan nan nan nan nan nan nan nan nan nan nan nan nan
nan nan nan nan nan nan nan nan nan nan nan nan nan nan nan nan nan nan nan nan nan nan nan nan nan nan nan nan nan nan nan nan nan nan 37 38 37 37 36 nan 36 36 35 34 nan nan nan nan nan nan nan nan nan nan nan nan nan nan nan nan nan nan nan nan nan nan nan nan nan nan nan nan nan nan nan nan nan nan nan nan nan nan nan nan nan nan
nan 21 nan nan nan nan nan nan nan nan nan nan nan nan nan nan nan nan nan nan nan nan nan nan nan nan nan nan nan nan nan nan nan nan nan 38 38 37 37 37 38 38 nan nan nan nan nan nan nan nan nan nan nan nan nan nan nan nan nan nan nan nan nan nan nan nan nan nan nan nan nan nan nan nan nan nan nan nan nan nan nan nan nan nan nan nan
nan nan nan nan nan nan nan nan nan nan nan nan nan nan nan nan nan nan nan nan nan nan nan nan nan nan nan nan nan nan nan nan nan nan nan nan 38 38 37 38 nan nan nan nan nan nan nan nan nan nan nan nan nan nan nan nan nan nan nan nan nan nan nan nan nan nan nan nan nan nan nan nan nan nan nan nan nan nan nan nan nan nan nan nan nan nan
nan nan nan nan nan nan nan nan nan nan nan nan nan nan nan nan nan nan nan nan nan nan nan nan nan nan nan nan nan nan nan nan nan nan nan nan nan nan nan nan nan nan nan nan nan nan nan nan nan nan nan nan nan nan nan nan nan nan nan nan nan nan nan nan nan nan nan nan nan nan nan nan nan nan nan nan nan nan nan nan nan nan nan nan nan nan
nan nan nan nan nan nan nan nan nan nan nan nan nan nan nan nan nan nan nan nan nan nan nan nan nan nan nan nan nan nan nan nan nan nan nan nan nan nan nan nan nan nan nan nan nan nan nan nan nan nan nan nan nan nan nan nan nan nan nan nan nan nan nan nan nan nan nan nan nan nan nan nan nan nan nan nan nan nan nan nan nan nan nan nan nan nan
nan nan nan nan nan nan nan nan nan nan nan nan nan nan nan nan nan nan nan nan nan nan nan nan nan nan nan nan nan nan nan nan nan nan nan nan nan nan nan nan nan nan nan nan nan nan nan nan nan nan nan nan nan nan nan nan nan nan nan nan nan nan nan nan nan nan nan nan nan nan nan nan nan nan nan nan nan nan nan nan nan nan nan nan nan nan
nan nan nan nan nan nan nan nan nan nan nan nan nan nan nan nan nan nan nan nan nan nan nan nan nan nan nan nan nan nan nan nan nan nan nan nan nan nan nan nan nan nan nan nan nan nan nan nan nan nan nan nan nan nan nan nan nan nan nan nan nan nan nan nan nan nan nan nan nan nan nan nan nan nan nan nan nan nan nan nan nan nan nan nan nan nan
nan nan nan nan nan nan nan nan nan nan nan nan nan nan nan nan nan nan nan nan nan nan nan nan nan nan nan nan nan nan nan nan nan nan nan nan nan nan nan nan nan nan nan nan nan nan nan nan nan nan nan nan nan nan nan nan nan nan nan nan nan nan nan nan nan nan nan nan nan nan nan nan nan nan nan nan nan nan nan nan nan nan nan nan nan nan
nan nan nan nan nan nan nan nan nan nan nan nan nan nan nan nan nan nan nan nan nan nan nan nan nan nan nan nan nan nan nan nan nan nan nan nan nan nan nan nan nan nan nan nan nan nan nan nan nan nan nan nan nan nan nan nan nan nan nan nan nan nan nan nan nan nan nan nan nan nan nan nan nan nan nan nan nan nan nan nan nan nan nan nan nan nan
nan nan nan nan nan nan nan nan nan nan nan nan nan nan nan nan nan nan nan nan nan nan nan nan nan nan nan nan nan nan nan nan nan nan nan nan nan nan nan nan nan nan nan nan nan nan nan nan nan nan nan nan nan nan nan nan nan nan nan nan nan nan nan nan nan nan nan nan nan nan nan nan nan nan nan nan nan nan nan nan nan nan nan nan nan nan
nan nan nan nan nan nan nan nan nan nan nan nan nan nan nan nan nan nan nan nan nan nan nan nan nan nan nan nan nan nan nan nan nan nan nan nan nan nan nan nan nan nan nan nan nan nan nan nan nan nan nan nan nan nan nan nan nan nan nan nan nan nan nan nan nan nan nan nan nan nan nan nan nan nan nan nan nan nan nan nan nan nan nan nan nan nan
nan nan nan nan nan nan nan nan nan nan nan nan nan nan nan nan nan nan nan nan nan nan nan nan nan nan nan nan nan nan nan nan nan nan nan nan nan nan nan nan nan nan nan nan nan nan nan nan nan nan nan nan nan nan nan nan nan nan nan nan nan nan nan nan nan nan nan nan nan nan nan nan nan nan nan nan nan nan nan nan nan nan nan nan nan nan
nan nan nan nan nan nan nan nan nan nan nan nan nan nan nan nan nan nan nan nan nan nan nan nan nan nan nan nan nan nan nan nan nan nan nan nan nan nan nan nan nan nan nan nan nan nan nan nan nan nan nan nan nan nan nan nan nan nan nan nan nan nan nan nan nan nan nan nan nan nan nan nan nan nan nan nan nan nan nan nan nan nan nan nan nan nan
nan nan nan nan nan nan nan nan nan nan nan nan nan nan nan nan nan nan nan nan nan nan nan nan nan nan nan nan nan nan nan nan nan nan nan nan nan nan nan nan nan nan nan nan nan nan nan nan nan nan nan nan nan nan nan nan nan nan nan nan nan nan nan nan nan nan nan nan nan nan nan nan nan nan nan nan nan nan nan nan nan nan nan nan nan nan
Wind_Direction
nan nan nan nan nan nan nan nan nan nan nan nan nan nan nan nan nan nan nan nan nan nan nan nan nan nan nan nan nan nan nan nan nan 263 269 269 273 284 284 278 276 273 271 276 284 284 287 294 294 297 303 306 291 293 298 317 334 302 276 263 263 261 259 255 254 261 267 265 264 262 260 259 259 259 253 251 254 250 229 217 283 285 281 280 279 276
nan nan nan nan nan nan nan nan nan nan nan nan nan nan nan nan nan nan nan nan nan nan nan nan nan nan nan nan nan nan nan nan nan nan 276 277 265 265 277 278 280 278 273 279 282 280 288 296 295 294 299 304 299 296 316 323 315 301 285 268 265 257 254 255 262 264 264 258 257 259 257 254 257 255 251 248 241 228 235 264 257 281 279 277 277 271
nan nan nan nan nan nan nan nan nan nan nan nan nan nan nan nan nan nan nan nan nan nan nan nan nan nan nan nan nan nan nan nan nan nan 277 290 282 252 243 278 284 277 271 277 276 274 289 299 297 295 297 303 297 301 329 320 313 309 282 273 264 254 249 254 252 250 251 249 248 258 257 255 256 248 239 242 243 228 221 246 262 273 276 275 275 274
nan nan nan nan nan nan nan nan nan nan nan nan nan nan nan nan nan nan nan nan nan nan nan nan nan nan nan nan nan nan nan nan nan nan nan 279 282 297 298 279 275 270 268 274 276 278 290 295 296 297 301 304 298 306 331 329 308 286 281 275 271 256 255 241 246 244 244 254 253 253 256 254 248 244 240 242 238 236 220 226 274 275 274 275 275 277
nan nan nan nan nan nan nan nan nan nan nan nan nan nan nan nan nan nan nan nan nan nan nan nan nan nan nan nan nan nan nan nan nan nan nan nan 278 283 278 281 288 282 267 272 274 273 286 299 299 300 304 305 306 309 321 317 295 264 275 272 271 266 259 246 256 264 255 249 254 254 254 248 243 237 242 235 234 231 224 251 276 276 272 275 273 275
nan nan nan nan nan nan nan nan nan nan nan nan nan nan nan nan nan nan nan nan nan nan nan nan nan nan nan nan nan nan nan nan nan nan nan nan nan nan 282 283 288 285 275 281 281 273 284 295 293 300 309 316 306 307 305 283 275 257 249 250 253 255 258 250 265 262 256 249 256 263 258 256 245 249 247 244 243 244 237 266 278 275 274 278 273 273
nan nan nan nan nan nan nan nan nan nan nan nan nan nan nan nan nan nan nan nan nan nan nan nan nan nan nan nan nan nan nan nan nan nan nan nan nan nan 278 280 282 285 279 273 271 277 286 285 290 303 316 320 317 290 263 251 249 246 230 228 245 252 260 258 255 263 259 259 251 254 253 253 252 258 255 244 249 248 235 267 278 273 275 277 274 268
nan nan nan nan nan nan nan nan nan nan nan nan nan nan nan nan nan nan nan nan nan nan nan nan nan nan nan nan nan nan nan nan nan nan nan nan nan nan nan 273 281 282 272 266 263 263 266 271 279 296 304 308 289 249 237 229 232 238 240 237 249 259 262 260 265 267 257 253 254 249 250 252 254 253 251 243 244 248 237 273 283 276 276 275 272 268
nan nan nan nan nan nan nan nan nan nan nan nan nan nan nan nan nan nan nan nan nan nan nan nan nan nan nan nan nan nan nan nan nan nan nan nan nan nan nan 236 246 272 278 273 262 260 260 259 267 272 273 269 257 242 234 227 229 236 253 243 241 256 259 261 258 258 262 255 250 261 255 258 255 250 246 251 241 239 239 274 279 275 275 271 268 269
nan nan nan nan nan nan nan nan nan nan nan nan nan nan nan nan nan nan nan nan nan nan nan nan nan nan nan nan nan nan nan nan nan nan nan nan nan nan nan nan nan nan 271 263 260 253 248 240 232 243 244 236 230 235 237 238 241 249 253 249 233 244 248 257 260 266 282 278 266 272 271 264 258 258 258 249 237 221 255 274 274 270 268 267 266 261
nan nan nan nan nan nan nan nan nan nan nan nan nan nan nan nan nan nan nan nan nan nan nan nan nan nan nan nan nan nan nan nan nan 235 230 225 225 225 nan nan nan nan 265 259 255 252 237 231 229 235 238 243 244 243 250 255 260 258 255 258 256 254 255 262 269 280 286 281 277 275 272 267 265 264 261 245 228 240 264 276 275 275 270 265 263 257
nan nan nan nan nan nan nan nan nan nan nan nan nan nan nan nan nan nan nan nan nan nan nan nan nan nan nan nan 230 235 232 243 234 248 230 219 219 219 222 223 nan 241 243 248 253 250 244 240 237 240 249 246 244 251 260 267 264 265 269 275 278 279 273 275 277 281 282 284 285 279 269 266 265 263 260 247 228 261 284 284 283 278 271 260 261 258
nan nan nan nan nan nan nan nan nan nan nan nan nan nan nan nan nan nan nan nan nan nan nan nan nan nan nan nan 247 247 246 242 238 247 241 221 213 207 201 215 nan 246 262 248 248 247 247 246 244 246 253 259 266 265 271 271 268 269 275 284 294 300 295 290 286 290 291 289 286 282 272 270 262 256 254 243 240 273 290 286 282 275 265 263 259 265
nan nan nan nan nan nan nan nan nan nan nan nan nan nan nan nan nan nan nan nan nan nan nan nan nan nan nan 243 236 242 244 239 235 240 240 222 224 206 223 216 220 235 242 241 242 254 248 245 245 248 252 258 263 269 276 279 281 280 283 291 300 304 300 296 298 297 295 296 294 287 281 278 266 255 247 238 251 277 282 275 272 265 258 257 263 273
nan nan nan nan nan nan nan nan nan nan nan nan nan nan nan nan nan nan nan nan nan nan nan nan nan nan nan nan 245 253 258 256 246 241 242 248 257 251 227 238 229 228 255 254 246 245 246 245 251 252 253 259 263 271 276 274 281 288 292 295 304 306 303 300 299 296 298 297 294 290 285 279 266 260 246 237 261 278 277 268 264 248 251 256 265 274
nan nan nan nan nan nan nan nan nan nan nan nan nan nan nan nan nan nan 235 nan nan nan 249 271 nan nan 244 252 253 262 263 257 252 242 242 236 239 262 259 275 274 255 235 231 235 244 248 248 254 254 252 254 262 272 275 281 288 296 299 300 306 309 306 302 299 302 305 302 292 290 287 279 277 266 249 245 267 275 270 263 252 243 245 253 261 267
nan nan nan nan nan nan nan nan nan nan nan nan nan nan nan nan nan nan nan nan nan nan nan nan nan nan 271 265 260 256 252 246 243 245 249 247 238 229 235 248 250 245 252 245 243 234 247 253 255 257 256 254 262 271 280 289 291 294 296 298 305 309 307 303 303 305 308 304 296 293 289 282 283 273 259 261 271 274 273 259 244 239 243 253 259 266
nan nan nan nan nan nan nan nan nan nan nan nan nan nan nan nan nan nan nan nan nan nan nan nan nan 278 nan 264 257 255 250 246 244 236 238 245 237 227 215 214 206 218 231 238 239 243 244 250 248 250 254 263 274 281 285 290 290 288 289 295 304 307 312 306 304 306 307 303 298 289 286 286 287 284 272 264 270 273 271 262 243 243 248 255 260 262
nan nan nan nan nan nan nan nan nan nan nan nan nan nan nan nan nan 247 nan nan nan nan nan nan nan nan 245 258 246 246 244 239 241 245 235 235 241 233 216 213 206 212 215 210 227 236 237 241 242 250 259 265 274 280 283 285 285 284 287 291 301 307 309 306 302 305 305 303 293 282 282 288 284 279 272 257 265 273 274 259 249 249 253 255 258 264
nan nan nan nan nan nan nan nan nan nan nan nan nan nan nan nan nan nan nan 236 235 nan nan nan nan nan 241 250 263 254 242 233 238 239 239 240 241 242 241 209 215 214 221 217 223 229 232 241 247 253 261 267 270 271 276 280 280 284 285 289 293 295 297 300 303 303 309 303 289 281 280 283 282 279 268 248 255 276 268 253 250 250 255 256 257 262
nan nan nan nan nan nan nan nan nan nan nan nan nan nan nan nan 221 221 nan nan 222 nan nan nan nan 259 254 242 259 264 243 238 233 236 237 236 235 234 232 223 222 223 220 217 219 224 229 240 249 252 253 248 252 259 262 269 275 282 282 285 289 290 292 297 301 307 308 297 286 282 282 283 282 278 267 252 260 269 260 250 251 245 248 252 252 257
nan nan nan nan nan nan nan nan nan nan nan nan nan nan nan nan 237 nan nan nan nan nan nan nan nan 252 245 241 246 249 239 231 234 234 235 235 233 230 228 225 217 217 220 220 219 222 229 235 246 254 252 245 241 239 253 263 271 278 280 280 284 284 288 293 297 302 305 293 279 280 281 283 275 274 263 252 252 262 262 251 251 249 249 249 247 252
nan 218 nan nan nan nan nan nan nan nan nan nan nan nan nan nan nan nan 226 235 220 nan nan 236 nan nan 250 239 242 250 242 234 232 236 242 236 234 231 229 224 219 217 219 219 221 224 228 235 242 242 240 251 258 258 255 255 263 266 272 280 280 281 285 290 292 293 293 277 269 276 279 280 277 274 269 252 252 272 277 258 252 251 249 248 245 248
nan nan 217 nan nan nan 239 nan nan nan nan nan nan 213 228 nan 216 nan nan nan nan nan nan nan nan 258 258 246 248 248 239 235 235 232 237 242 241 238 231 223 216 217 219 218 220 225 229 236 243 254 257 257 261 259 265 274 267 260 266 264 270 277 279 280 274 274 277 270 271 278 283 288 284 279 271 262 260 282 281 262 251 249 249 245 246 250
nan nan nan nan nan nan 212 249 nan nan nan nan nan 232 nan 218 212 238 253 236 nan 229 nan nan nan nan 267 260 254 246 242 239 236 237 235 238 243 245 241 233 223 222 223 223 225 229 234 238 242 245 250 257 261 266 271 279 284 287 267 255 262 264 269 270 272 270 276 274 273 280 289 298 288 278 275 266 267 278 273 258 249 250 252 243 244 249
nan 222 nan nan nan nan nan 242 nan 234 nan nan nan 226 222 215 209 214 nan 256 nan nan nan nan 253 253 256 259 251 247 244 241 239 241 243 241 242 243 243 239 231 228 228 229 230 233 235 238 243 246 248 251 254 257 260 267 263 257 258 257 252 262 267 264 262 268 267 260 265 266 265 270 265 265 270 270 267 276 271 257 251 249 246 243 244 245
217 215 216 208 210 213 210 219 nan nan 215 nan 243 nan 231 214 209 214 223 235 nan 231 229 231 248 266 266 253 240 233 231 235 240 242 242 242 243 243 242 241 240 237 234 233 234 235 236 240 244 249 253 257 258 253 251 252 263 263 261 252 248 246 251 250 256 267 274 273 262 262 262 277 280 276 271 264 265 269 266 259 253 250 246 nan 250 250
nan nan nan 220 220 233 nan 231 nan nan nan nan nan nan nan 233 217 226 232 234 235 nan nan 242 255 263 257 245 235 229 229 229 231 234 239 241 242 242 241 240 237 238 236 236 nan nan nan 242 244 246 250 253 nan nan 248 244 244 255 259 252 247 242 244 243 250 nan 269 272 269 263 264 261 264 266 269 266 266 264 262 258 259 254 249 249 nan nan
220 nan 227 234 225 232 nan nan nan 223 240 230 232 236 239 235 233 232 232 235 239 241 248 258 258 270 261 248 232 229 223 222 228 231 234 237 241 242 240 237 235 234 234 235 nan nan nan nan nan nan nan nan nan nan nan 242 nan nan 237 240 242 236 235 242 258 260 262 265 266 261 260 260 261 260 265 265 265 262 259 260 259 257 256 254 nan nan
225 226 219 nan 229 nan 235 236 239 nan 230 241 234 233 236 236 233 231 232 233 239 248 257 266 268 264 256 244 232 234 231 229 232 236 237 238 238 241 241 239 237 236 236 236 235 237 nan nan nan nan nan nan nan nan nan nan nan nan nan 227 224 236 238 246 255 254 258 254 254 258 260 265 261 259 261 261 257 254 255 257 254 251 253 254 nan nan
nan nan 237 220 nan 233 232 nan nan nan 239 nan nan nan nan 228 236 232 232 230 243 253 257 262 262 260 nan 246 248 248 247 243 240 238 237 236 238 240 242 241 238 238 239 nan 236 nan nan nan nan nan nan nan nan nan nan nan nan nan nan nan nan 225 236 245 248 244 252 260 255 255 260 263 261 256 254 253 250 250 254 258 254 250 250 nan nan nan
220 nan 230 231 nan nan 239 240 243 nan nan nan nan nan nan nan nan nan nan 234 236 242 257 256 257 258 259 256 254 250 245 243 240 237 236 235 238 241 242 242 240 239 238 nan nan 238 240 nan nan nan nan nan nan nan nan nan nan nan nan nan nan 218 225 235 242 240 237 239 238 249 257 262 263 255 250 252 254 252 249 252 253 251 249 248 nan nan
222 222 227 nan nan 230 244 242 245 252 nan nan nan nan nan nan nan nan nan nan nan 233 246 250 250 253 264 262 259 251 246 242 240 235 236 238 239 242 243 243 243 242 240 nan nan nan nan nan nan nan nan nan nan nan nan nan nan nan nan nan nan nan 224 230 236 236 231 234 244 nan nan 252 253 249 245 nan nan nan 249 256 258 254 250 250 251 253
228 227 227 nan nan nan 241 246 244 nan 259 nan nan nan nan nan nan nan nan nan nan nan nan nan 253 256 nan 257 253 250 nan 244 244 241 237 236 241 243 244 243 243 243 243 nan nan nan nan nan nan nan nan nan nan nan nan nan nan nan nan nan nan nan nan nan 233 233 nan nan 238 242 nan nan nan nan nan nan nan nan nan nan nan nan nan nan nan nan
227 227 225 nan nan nan 243 nan nan nan nan nan nan nan nan nan nan nan nan nan nan nan nan nan nan nan nan 254 nan nan nan nan nan 242 239 238 241 243 244 244 243 244 244 243 nan nan nan nan nan nan nan nan nan nan nan nan nan nan nan nan nan nan nan nan nan nan nan nan nan nan nan nan nan nan nan nan nan nan nan nan nan nan nan nan nan nan
nan nan nan nan nan nan nan nan 234 nan nan nan nan nan nan nan nan nan nan nan nan nan nan nan nan nan nan nan nan nan nan nan 248 243 242 242 241 243 245 247 247 247 247 246 246 nan nan nan nan nan nan nan nan nan nan nan nan nan nan nan nan nan nan nan nan nan nan nan nan nan nan nan nan nan nan nan nan nan nan nan nan nan nan nan nan nan
nan 229 nan nan nan nan nan nan nan nan nan nan nan nan nan nan nan nan nan nan nan nan nan nan nan nan nan nan nan nan nan 255 nan 242 240 242 244 245 246 249 249 248 246 246 244 nan nan nan nan nan nan nan nan nan nan nan nan nan nan nan nan nan nan nan nan nan nan nan nan nan nan nan nan nan nan nan nan nan nan nan nan nan nan nan nan nan
nan nan nan nan nan nan nan nan nan nan nan nan nan nan nan nan nan nan nan nan nan nan nan nan nan nan nan nan nan nan nan nan nan nan 239 242 245 248 248 nan 250 249 246 242 nan nan nan nan nan nan nan nan nan nan nan nan nan nan nan nan nan nan nan nan nan nan nan nan nan nan nan nan nan nan nan nan nan nan nan nan nan nan nan nan nan nan
nan 209 nan nan nan nan nan nan nan nan nan nan nan nan nan nan nan nan nan nan nan nan nan nan nan nan nan nan nan nan nan nan nan nan nan 244 245 245 246 246 247 247 nan nan nan nan nan nan nan nan nan nan nan nan nan nan nan nan nan nan nan nan nan nan nan nan nan nan nan nan nan nan nan nan nan nan nan nan nan nan nan nan nan nan nan nan
nan nan nan nan nan nan nan nan nan nan nan nan nan nan nan nan nan nan nan nan nan nan nan nan nan nan nan nan nan nan nan nan nan nan nan nan 244 243 241 242 nan nan nan nan nan nan nan nan nan nan nan nan nan nan nan nan nan nan nan nan nan nan nan nan nan nan nan nan nan nan nan nan nan nan nan nan nan nan nan nan nan nan nan nan nan nan
nan nan nan nan nan nan nan nan nan nan nan nan nan nan nan nan nan nan nan nan nan nan nan nan nan nan nan nan nan nan nan nan nan nan nan nan nan nan nan nan nan nan nan nan nan nan nan nan nan nan nan nan nan nan nan nan nan nan nan nan nan nan nan nan nan nan nan nan nan nan nan nan nan nan nan nan nan nan nan nan nan nan nan nan nan nan
nan nan nan nan nan nan nan nan nan nan nan nan nan nan nan nan nan nan nan nan nan nan nan nan nan nan nan nan nan nan nan nan nan nan nan nan nan nan nan nan nan nan nan nan nan nan nan nan nan nan nan nan nan nan nan nan nan nan nan nan nan nan nan nan nan nan nan nan nan nan nan nan nan nan nan nan nan nan nan nan nan nan nan nan nan nan
nan nan nan nan nan nan nan nan nan nan nan nan nan nan nan nan nan nan nan nan nan nan nan nan nan nan nan nan nan nan nan nan nan nan nan nan nan nan nan nan nan nan nan nan nan nan nan nan nan nan nan nan nan nan nan nan nan nan nan nan nan nan nan nan nan nan nan nan nan nan nan nan nan nan nan nan nan nan nan nan nan nan nan nan nan nan
nan nan nan nan nan nan nan nan nan nan nan nan nan nan nan nan nan nan nan nan nan nan nan nan nan nan nan nan nan nan nan nan nan nan nan nan nan nan nan nan nan nan nan nan nan nan nan nan nan nan nan nan nan nan nan nan nan nan nan nan nan nan nan nan nan nan nan nan nan nan nan nan nan nan nan nan nan nan nan nan nan nan nan nan nan nan
nan nan nan nan nan nan nan nan nan nan nan nan nan nan nan nan nan nan nan nan nan nan nan nan nan nan nan nan nan nan nan nan nan nan nan nan nan nan nan nan nan nan nan nan nan nan nan nan nan nan nan nan nan nan nan nan nan nan nan nan nan nan nan nan nan nan nan nan nan nan nan nan nan nan nan nan nan nan nan nan nan nan nan nan nan nan
nan nan nan nan nan nan nan nan nan nan nan nan nan nan nan nan nan nan nan nan nan nan nan nan nan nan nan nan nan nan nan nan nan nan nan nan nan nan nan nan nan nan nan nan nan nan nan nan nan nan nan nan nan nan nan nan nan nan nan nan nan nan nan nan nan nan nan nan nan nan nan nan nan nan nan nan nan nan nan nan nan nan nan nan nan nan
nan nan nan nan nan nan nan nan nan nan nan nan nan nan nan nan nan nan nan nan nan nan nan nan nan nan nan nan nan nan nan nan nan nan nan nan nan nan nan nan nan nan nan nan nan nan nan nan nan nan nan nan nan nan nan nan nan nan nan nan nan nan nan nan nan nan nan nan nan nan nan nan nan nan nan nan nan nan nan nan nan nan nan nan nan nan
nan nan nan nan nan nan nan nan nan nan nan nan nan nan nan nan nan nan nan nan nan nan nan nan nan nan nan nan nan nan nan nan nan nan nan nan nan nan nan nan nan nan nan nan nan nan nan nan nan nan nan nan nan nan nan nan nan nan nan nan nan nan nan nan nan nan nan nan nan nan nan nan nan nan nan nan nan nan nan nan nan nan nan nan nan nan
nan nan nan nan nan nan nan nan nan nan nan nan nan nan nan nan nan nan nan nan nan nan nan nan nan nan nan nan nan nan nan nan nan nan nan nan nan nan nan nan nan nan nan nan nan nan nan nan nan nan nan nan nan nan nan nan nan nan nan nan nan nan nan nan nan nan nan nan nan nan nan nan nan nan nan nan nan nan nan nan nan nan nan nan nan nan
nan nan nan nan nan nan nan nan nan nan nan nan nan nan nan nan nan nan nan nan nan nan nan nan nan nan nan nan nan nan nan nan nan nan nan nan nan nan nan nan nan nan nan nan nan nan nan nan nan nan nan nan nan nan nan nan nan nan nan nan nan nan nan nan nan nan nan nan nan nan nan nan nan nan nan nan nan nan nan nan nan nan nan nan nan nan
nan nan nan nan nan nan nan nan nan nan nan nan nan nan nan nan nan nan nan nan nan nan nan nan nan nan nan nan nan nan nan nan nan nan nan nan nan nan nan nan nan nan nan nan nan nan nan nan nan nan nan nan nan nan nan nan nan nan nan nan nan nan nan nan nan nan nan nan nan nan nan nan nan nan nan nan nan nan nan nan nan nan nan nan nan nan